Regional Weather Roundup
Issued by NWS Sterling, VA

Home | Current Version | Previous Version | Graphics & Text | Print | Product List | Glossary On
Versions: 1 2 3 4 5 6 7 8 9 10 11 12 13 14 15 16 17 18 19 20 21 22 23 24 25 26 27 28 29 30 31 32 33 34 35 36 37 38 39 40 41 42 43 44 45 46 47 48 49 50
923
ASUS41 KLWX 171810
RWRLWX

REGIONAL WEATHER ROUNDUP
NATIONAL WEATHER SERVICE BALTIMORE MD/WASHINGTON DC
100 PM EST TUE JAN 17 2017

Note: "FAIR" indicates few or no clouds below 12,000 feet
with no significant weather and/or obstructions to visibility.
 TC=TEMPERATURE CELSIUS

 * =Non NWS site. Station does not report precipitation (e.g. rain,
    snow, etc.), thunder, or fog.

DCZ001-MDZ009-015-VAZ040>042-051-053>054-171900-
WASHINGTON METRO

CITY           SKY/WX    TMP DP  RH WIND       PRES   REMARKS
WASHINGTON NAT LGT RAIN  47  45  93 SW14      30.09F
DULLES         LGT RAIN  45  43  93 S6        30.07F FOG
ANDREWS AFB    LGT RAIN  46  45  93 S7        30.07F
FT BELVOIR     LGT RAIN  46  43  90 VRB6      30.08F
QUANTICO       LGT RAIN  44  44 100 S3        30.09F FOG
LEESBURG*      LGT RAIN  45  45 100 MISG      30.06F
MANASSAS*      LGT RAIN N/A N/A N/A S6          N/A
GAITHERSBURG*  CLOUDY    43  39  87 SW6       30.12R

$$

MDZ006>007-011-014-171900-
BALTIMORE METRO

CITY           SKY/WX    TMP DP  RH WIND       PRES   REMARKS
BWI AIRPORT    CLOUDY    44  44 100 VRB3      30.07F FOG
MD SCIENCE CTR   N/A     44  40  85 MISG      30.09F
MARTIN STATE   CLOUDY    43  43 100 E5        30.11F FOG
ANNAPOLIS      CLOUDY    45  42  89 S9        30.09F FOG
FORT MEADE*    CLOUDY    43  43 100 S3        30.10F

$$

MDZ012-015-019>023-171900-
MARYLAND EASTERN SHORE

CITY           SKY/WX    TMP DP  RH WIND       PRES   REMARKS
OCEAN CITY     CLOUDY    44  44 100 S6        30.13F
SALISBURY      CLOUDY    46  45  96 SE5       30.10F FOG
BAY BRIDGE AP* CLOUDY    45  43  93 S7        30.09F FOG
CAMBRIDGE*     CLOUDY    45  43  93 S10       30.09F
EASTON*        CLOUDY    48  45  87 S8        30.13F FOG

$$

MDZ017>025-171900-
SOUTHERN MARYLAND

CITY           SKY/WX    TMP DP  RH WIND       PRES   REMARKS
PATUXENT RIVER CLOUDY    45  44  97 E5        30.09F FOG
ST INIGOES     CLOUDY    50  46  86 S6        30.08F
LEONARDTOWN*   CLOUDY    46  45  93 S6        30.09F

$$

MDZ003>005-171900-
NORTH CENTRAL MARYLAND

CITY           SKY/WX    TMP DP  RH WIND       PRES   REMARKS
FREDERICK*     LGT RAIN  39  39 100 CALM      30.10F
HAGERSTOWN APT LGT RAIN  39  36  89 CALM      30.02F VSB 1
WESTMINSTER*   LGT RAIN  39  39 100 S5        30.06R

$$

MDZ501>502-171900-
WESTERN MARYLAND

CITY           SKY/WX    TMP DP  RH WIND       PRES   REMARKS
OAKLAND*         N/A     50  50 100 SW8G16    29.92F FOG
CUMBERLAND*    CLOUDY    39  39 100 CALM        N/A

$$

VAZ025>031-171900-
SHENANDOAH VALLEY

CITY           SKY/WX    TMP DP  RH WIND       PRES   REMARKS
WINCHESTER*    CLOUDY    45  43  93 CALM      30.01F FOG
FRONT ROYAL*   CLOUDY    46  46 100 N5        29.99F
LURAY*         LGT RAIN  54  54 100 SW8       30.00F
NEW MARKET*    CLOUDY    51  49  91 W5        30.00F
STAUNTON*      RAIN      56  52  88 SW7       30.04F
WAYNESBORO*    CLOUDY    54  52  93 CALM      30.03F

$$

WVZ021-048>050-054>055-171900-
EASTERN WEST VIRGINIA PANHANDLE

CITY           SKY/WX    TMP DP  RH WIND       PRES   REMARKS
MARTINSBURG    FOG       39  37  92 N5        30.01F VSB 1
PETERSBURG*    CLOUDY    45  43  92 CALM      29.97F FOG

$$

VAZ036>039-050-171900-
CENTRAL FOOTHILLS

CITY           SKY/WX    TMP DP  RH WIND       PRES   REMARKS
CHARLOTTESVILL LGT RAIN  47  45  93 S6        30.06F FOG
CULPEPER*      LGT RAIN  46  45  96 S3        30.06F
ORANGE*        LGT RAIN  48  48 100 CALM      30.08F
GORDONSVILLE*  CLOUDY    46  46  99 SW7       30.06F FOG
WARRENTON*     LGT RAIN  47  44  87 S6        30.05F

$$

VAZ055>057-171900-
NORTH AND CENTRAL PIEDMONT

CITY           SKY/WX    TMP DP  RH WIND       PRES   REMARKS
FREDERICKSBRG* CLOUDY    51  51 100 S7        30.06F
STAFFORD*      LGT RAIN  47  47 100 CALM      30.11F

$$

NCZ024-NYZ072-PAZ021-071-VAZ022-071-171900-
OTHER REGIONAL OBSERVATIONS

CITY           SKY/WX    TMP DP  RH WIND       PRES   REMARKS
NEW YORK CITY  LGT RAIN  40  38  93 VRB3      30.17F FOG
PHILADELPHIA   CLOUDY    42  38  85 SE6       30.11F FOG
PITTSBURGH     CLOUDY    59  54  83 SW14G21   29.85F
ROANOKE        CLOUDY    49  47  93 E5        30.10F
RICHMOND       CLOUDY    57  51  80 SW12      30.10F
RALEIGH        CLOUDY    57  52  83 SW13      30.18F

$$

ANZ530>537-171900-
MARINE OBSERVATIONS

STATION/POSITION TIME  TEMP    WIND        PRES
                       AIR SEA DIR/SP/G
                 (UTC) (F)     (DEG/KT/KT) (MB)
THOMAS PT LIGHT  1800   41 39  190/  8/  8   N/A
BALT KEY BRIDGE  1748   40     110/  8/  9 1018.9F
COVE POINT       1748   40     190/ 12/ 14 1019.9F
LEWISETTA        1742   52 43  220/  6/  7 1018.8F
SOLOMONS ISLAND  1748          110/  4/  6   N/A
PINEY POINT      1748          140/  6/  6   N/A

$$





USA.gov is the U.S. government's official web portal to all federal, state and local government web resources and services.